| time (UTC) | temp C | wind direction | speed KPH | gust KPH | rain 1hr cm | rain 24hr cm | rain mn cm | humidity % | barometer mb |
| 20260906095228 | 20 | 97 | 0.0 | 1.6 | 0.00 | 0.00 | 0.00 | 97 | 1009.2 |
| 20260906094727 | 20 | 53 | 0.0 | 0.0 | 0.00 | 0.00 | 0.00 | 97 | 1009.5 |
| 20260906094222 | 20 | 125 | 0.0 | 3.2 | 0.00 | 0.00 | 0.00 | 97 | 1009.3 |
| 20260906093719 | 21 | 94 | 1.6 | 3.2 | 0.00 | 0.00 | 0.00 | 97 | 1009.4 |
| 20260906093214 | 21 | 133 | 3.2 | 3.2 | 0.00 | 0.00 | 0.00 | 97 | 1009.5 |
| 20260906092708 | 21 | 119 | 0.0 | 1.6 | 0.00 | 0.00 | 0.00 | 97 | 1009.2 |
| 20260906091403 | 21 | 89 | 0.0 | 0.0 | 0.00 | 0.00 | 0.00 | 97 | 1009.4 |
| 20260906090900 | 21 | 89 | 0.0 | 0.0 | 0.00 | 0.00 | 0.00 | 97 | 1009.4 |
| 20260906090359 | 21 | 178 | 1.6 | 3.2 | 0.00 | 0.00 | 0.00 | 97 | 1009.6 |
| 20260906085854 | 21 | 215 | 0.0 | 3.2 | 0.00 | 0.00 | 0.00 | 97 | 1009.4 |
| 20260906085353 | 20 | 60 | 0.0 | 0.0 | 0.00 | 0.00 | 0.00 | 97 | 1009.3 |
| 20260906084848 | 20 | 60 | 0.0 | 0.0 | 0.00 | 0.00 | 0.00 | 97 | 1009.3 |
| 20260906084348 | 20 | 72 | 0.0 | 1.6 | 0.00 | 0.00 | 0.00 | 97 | 1009.4 |
| 20260906083842 | 21 | 88 | 0.0 | 1.6 | 0.00 | 0.00 | 0.00 | 97 | 1009.2 |
| 20260906083338 | 20 | 102 | 0.0 | 3.2 | 0.00 | 0.00 | 0.00 | 97 | 1009.3 |
| 20260906082838 | 21 | 72 | 0.0 | 3.2 | 0.00 | 0.00 | 0.00 | 97 | 1009.1 |
| 20260906082333 | 21 | 130 | 1.6 | 3.2 | 0.00 | 0.00 | 0.00 | 97 | 1009.2 |
| 20260906081829 | 21 | 124 | 0.0 | 1.6 | 0.00 | 0.00 | 0.00 | 96 | 1009.3 |
| 20260906081325 | 21 | 116 | 0.0 | 1.6 | 0.00 | 0.00 | 0.00 | 96 | 1009.2 |
| 20260906080821 | 21 | 121 | 1.6 | 3.2 | 0.00 | 0.00 | 0.00 | 96 | 1009.2 |
| 20260906080317 | 21 | 89 | 0.0 | 1.6 | 0.00 | 0.00 | 0.00 | 96 | 1009.2 |
| 20260906075816 | 21 | 89 | 0.0 | 0.0 | 0.00 | 0.00 | 0.00 | 96 | 1008.9 |
| 20260906075315 | 21 | 89 | 0.0 | 0.0 | 0.00 | 0.00 | 0.00 | 96 | 1009.1 |
| 20260906074811 | 21 | 89 | 0.0 | 1.6 | 0.00 | 0.00 | 0.00 | 96 | 1009.1 |
| 20260906074311 | 21 | 89 | 1.6 | 3.2 | 0.00 | 0.00 | 0.00 | 96 | 1009.1 |
| 20260906073810 | 21 | 100 | 0.0 | 0.0 | 0.00 | 0.00 | 0.00 | 96 | 1009.1 |
| 20260906073305 | 21 | 152 | 1.6 | 1.6 | 0.00 | 0.00 | 0.00 | 96 | 1009.2 |
| 20260906072801 | 21 | 135 | 0.0 | 1.6 | 0.00 | 0.00 | 0.00 | 96 | 1009.2 |
| 20260906072256 | 21 | 121 | 1.6 | 3.2 | 0.00 | 0.00 | 0.00 | 96 | 1009.1 |
| 20260906071752 | 21 | 116 | 1.6 | 3.2 | 0.00 | 0.00 | 0.00 | 96 | 1009.1 |
| 20260906071252 | 21 | 117 | 0.0 | 1.6 | 0.00 | 0.00 | 0.00 | 96 | 1009.2 |
| 20260906070749 | 21 | 113 | 1.6 | 3.2 | 0.00 | 0.00 | 0.00 | 95 | 1009.4 |
| 20260906070244 | 21 | 130 | 0.0 | 1.6 | 0.00 | 0.00 | 0.00 | 95 | 1009.2 |
| 20260906065744 | 21 | 103 | 0.0 | 1.6 | 0.00 | 0.00 | 0.00 | 95 | 1009.2 |
| 20260906065239 | 21 | 139 | 0.0 | 1.6 | 0.00 | 0.00 | 0.00 | 95 | 1009.3 |
| 20260906064735 | 21 | 49 | 0.0 | 1.6 | 0.00 | 0.00 | 0.00 | 95 | 1009.4 |
| 20260906064230 | 21 | 112 | 0.0 | 0.0 | 0.00 | 0.00 | 0.00 | 95 | 1009.4 |
| 20260906063725 | 21 | 94 | 1.6 | 3.2 | 0.00 | 0.00 | 0.00 | 95 | 1009.5 |
| 20260906063221 | 21 | 118 | 0.0 | 3.2 | 0.00 | 0.00 | 0.00 | 95 | 1009.4 |
| 20260906062716 | 21 | 37 | 0.0 | 1.6 | 0.00 | 0.00 | 0.00 | 94 | 1009.7 |
| 20260906062215 | 21 | 98 | 0.0 | 3.2 | 0.00 | 0.00 | 0.00 | 94 | 1009.7 |
| 20260906061711 | 21 | 99 | 1.6 | 3.2 | 0.00 | 0.00 | 0.00 | 94 | 1009.5 |
| 20260906061207 | 21 | 62 | 0.0 | 0.0 | 0.00 | 0.00 | 0.00 | 94 | 1009.4 |
| 20260906060703 | 21 | 123 | 0.0 | 1.6 | 0.00 | 0.00 | 0.00 | 94 | 1009.4 |
| 20260906060200 | 21 | 147 | 0.0 | 3.2 | 0.00 | 0.00 | 0.00 | 94 | 1009.4 |
| 20260906055655 | 21 | 115 | 0.0 | 3.2 | 0.00 | 0.00 | 0.00 | 94 | 1009.5 |
| 20260906055150 | 21 | 315 | 0.0 | 0.0 | 0.00 | 0.00 | 0.00 | 94 | 1009.7 |
| 20260906054645 | 21 | 142 | 0.0 | 3.2 | 0.00 | 0.00 | 0.00 | 94 | 1009.8 |
| 20260906054140 | 21 | 42 | 1.6 | 3.2 | 0.00 | 0.00 | 0.00 | 94 | 1010.1 |
| 20260906053637 | 21 | 42 | 1.6 | 3.2 | 0.00 | 0.00 | 0.00 | 94 | 1010.1 |
| 20260906053131 | 21 | 42 | 0.0 | 1.6 | 0.00 | 0.00 | 0.00 | 93 | 1009.9 |
| 20260906052627 | 21 | 42 | 0.0 | 1.6 | 0.00 | 0.00 | 0.00 | 93 | 1009.9 |
| 20260906052124 | 21 | 62 | 0.0 | 0.0 | 0.00 | 0.00 | 0.00 | 93 | 1010.0 |
| 20260906051620 | 22 | 53 | 0.0 | 1.6 | 0.00 | 0.00 | 0.00 | 93 | 1010.2 |
| 20260906051120 | 22 | 108 | 0.0 | 1.6 | 0.00 | 0.00 | 0.00 | 93 | 1010.2 |
| 20260906050616 | 22 | 74 | 1.6 | 3.2 | 0.00 | 0.00 | 0.00 | 92 | 1010.0 |
| 20260906050110 | 22 | 121 | 0.0 | 3.2 | 0.00 | 0.00 | 0.00 | 92 | 1009.9 |
| 20260906045609 | 22 | 152 | 1.6 | 3.2 | 0.00 | 0.00 | 0.00 | 92 | 1010.1 |
| 20260906045059 | 22 | 120 | 1.6 | 3.2 | 0.00 | 0.00 | 0.00 | 92 | 1010.2 |
| 20260906044554 | 22 | 147 | 3.2 | 3.2 | 0.00 | 0.00 | 0.00 | 92 | 1010.1 |
| 20260906044049 | 22 | 148 | 0.0 | 3.2 | 0.00 | 0.00 | 0.00 | 92 | 1010.1 |
| 20260906043545 | 22 | 146 | 0.0 | 1.6 | 0.00 | 0.00 | 0.00 | 92 | 1009.9 |
| 20260906043041 | 22 | 146 | 0.0 | 1.6 | 0.00 | 0.00 | 0.00 | 92 | 1009.9 |
| 20260906042540 | 22 | 149 | 0.0 | 1.6 | 0.00 | 0.00 | 0.00 | 92 | 1010.0 |
| 20260906042035 | 22 | 50 | 0.0 | 1.6 | 0.00 | 0.00 | 0.00 | 92 | 1010.2 |
| 20260906041531 | 22 | 50 | 0.0 | 1.6 | 0.00 | 0.00 | 0.00 | 91 | 1009.9 |
| 20260906041031 | 22 | 13 | 0.0 | 1.6 | 0.00 | 0.00 | 0.00 | 91 | 1010.3 |
| 20260906040526 | 22 | 48 | 0.0 | 1.6 | 0.00 | 0.00 | 0.00 | 90 | 1010.3 |
| 20260906040022 | 22 | 93 | 1.6 | 3.2 | 0.00 | 0.00 | 0.00 | 90 | 1010.4 |
| 20260906035516 | 22 | 124 | 0.0 | 3.2 | 0.00 | 0.00 | 0.00 | 90 | 1010.1 |
| 20260906035013 | 22 | 123 | 1.6 | 1.6 | 0.00 | 0.00 | 0.00 | 90 | 1010.0 |
| 20260906034512 | 22 | 148 | 0.0 | 1.6 | 0.00 | 0.00 | 0.00 | 90 | 1010.1 |
| 20260906034007 | 22 | 146 | 1.6 | 3.2 | 0.00 | 0.00 | 0.00 | 90 | 1010.2 |
| 20260906033502 | 22 | 132 | 1.6 | 3.2 | 0.00 | 0.00 | 0.00 | 90 | 1010.1 |
| 20260906032958 | 22 | 115 | 3.2 | 3.2 | 0.00 | 0.00 | 0.00 | 90 | 1010.1 |
| 20260906032455 | 22 | 133 | 0.0 | 3.2 | 0.00 | 0.00 | 0.00 | 90 | 1009.9 |
| 20260906031954 | 22 | 133 | 0.0 | 3.2 | 0.00 | 0.00 | 0.00 | 90 | 1010.0 |
| 20260906031450 | 22 | 150 | 1.6 | 3.2 | 0.00 | 0.00 | 0.00 | 90 | 1010.0 |
| 20260906030946 | 22 | 156 | 1.6 | 3.2 | 0.00 | 0.00 | 0.00 | 90 | 1010.3 |
| 20260906030440 | 22 | 119 | 0.0 | 1.6 | 0.00 | 0.00 | 0.00 | 90 | 1010.1 |
| 20260906025939 | 22 | 145 | 0.0 | 3.2 | 0.00 | 0.00 | 0.00 | 90 | 1010.3 |
| 20260906025434 | 22 | 123 | 0.0 | 3.2 | 0.00 | 0.00 | 0.00 | 89 | 1010.2 |
| 20260906024932 | 22 | 134 | 1.6 | 3.2 | 0.00 | 0.00 | 0.00 | 89 | 1010.4 |
| 20260906024433 | 22 | 129 | 0.0 | 3.2 | 0.00 | 0.00 | 0.00 | 89 | 1010.4 |
| 20260906023933 | 22 | 173 | 1.6 | 3.2 | 0.00 | 0.00 | 0.00 | 89 | 1010.4 |
| 20260906023430 | 22 | 157 | 1.6 | 3.2 | 0.00 | 0.00 | 0.00 | 88 | 1010.2 |
| 20260906022929 | 22 | 140 | 1.6 | 3.2 | 0.00 | 0.00 | 0.00 | 88 | 1010.1 |
| 20260906022425 | 22 | 131 | 0.0 | 1.6 | 0.00 | 0.00 | 0.00 | 87 | 1010.1 |
| 20260906021920 | 23 | 77 | 0.0 | 1.6 | 0.00 | 0.00 | 0.00 | 86 | 1010.1 |
| 20260906021421 | 23 | 77 | 0.0 | 1.6 | 0.00 | 0.00 | 0.00 | 86 | 1010.1 |
| 20260906020920 | 23 | 49 | 0.0 | 3.2 | 0.00 | 0.00 | 0.00 | 86 | 1009.7 |
| 20260906020415 | 23 | 120 | 1.6 | 3.2 | 0.00 | 0.00 | 0.00 | 85 | 1009.9 |
| 20260906015909 | 23 | 130 | 1.6 | 3.2 | 0.00 | 0.00 | 0.00 | 85 | 1009.7 |
| 20260906015409 | 23 | 132 | 1.6 | 3.2 | 0.00 | 0.00 | 0.00 | 85 | 1009.9 |
| 20260906014909 | 23 | 135 | 1.6 | 3.2 | 0.00 | 0.00 | 0.00 | 84 | 1009.8 |
| 20260906014409 | 23 | 143 | 1.6 | 3.2 | 0.00 | 0.00 | 0.00 | 84 | 1009.9 |
| 20260906013905 | 23 | 173 | 1.6 | 3.2 | 0.00 | 0.00 | 0.00 | 84 | 1010.0 |
| 20260906013400 | 23 | 218 | 1.6 | 3.2 | 0.00 | 0.00 | 0.00 | 83 | 1009.7 |
| 20260906012856 | 23 | 104 | 1.6 | 3.2 | 0.00 | 0.00 | 0.00 | 82 | 1010.0 |
| 20260906012350 | 23 | 117 | 0.0 | 3.2 | 0.00 | 0.00 | 0.00 | 82 | 1009.9 |
| 20260906011850 | 23 | 193 | 1.6 | 3.2 | 0.00 | 0.00 | 0.00 | 82 | 1009.8 |
| 20260906011345 | 23 | 192 | 3.2 | 4.8 | 0.00 | 0.00 | 0.00 | 81 | 1009.7 |
| 20260906010841 | 24 | 102 | 0.0 | 3.2 | 0.00 | 0.00 | 0.00 | 81 | 1009.7 |
| 20260906010337 | 24 | 186 | 0.0 | 3.2 | 0.00 | 0.00 | 0.00 | 80 | 1009.6 |
| 20260906005832 | 24 | 154 | 3.2 | 3.2 | 0.00 | 0.00 | 0.00 | 80 | 1009.6 |
| 20260906005331 | 24 | 141 | 1.6 | 3.2 | 0.00 | 0.00 | 0.00 | 80 | 1009.6 |
| 20260906004830 | 24 | 142 | 3.2 | 3.2 | 0.00 | 0.00 | 0.00 | 79 | 1009.6 |
| 20260906004330 | 24 | 146 | 1.6 | 3.2 | 0.00 | 0.00 | 0.00 | 79 | 1009.6 |
| 20260906003825 | 24 | 184 | 3.2 | 3.2 | 0.00 | 0.00 | 0.00 | 79 | 1009.5 |
| 20260906003321 | 25 | 156 | 1.6 | 3.2 | 0.00 | 0.00 | 0.00 | 78 | 1009.5 |
| 20260906002816 | 25 | 142 | 1.6 | 3.2 | 0.00 | 0.00 | 0.00 | 78 | 1009.8 |
| 20260906002315 | 25 | 133 | 0.0 | 1.6 | 0.00 | 0.00 | 0.00 | 77 | 1010.0 |
| 20260906001811 | 25 | 147 | 1.6 | 3.2 | 0.00 | 0.00 | 0.00 | 77 | 1010.1 |
| 20260906001307 | 25 | 115 | 1.6 | 3.2 | 0.00 | 0.00 | 0.00 | 77 | 1009.9 |
| 20260906000807 | 25 | 144 | 3.2 | 3.2 | 0.00 | 0.00 | 0.00 | 76 | 1009.8 |
| 20260906000303 | 25 | 130 | 1.6 | 4.8 | 0.00 | 0.00 | 0.00 | 76 | 1010.1 |
| 20260905235756 | 25 | 127 | 1.6 | 3.2 | 0.00 | 0.00 | 0.00 | 76 | 1010.0 |
| 20260905235256 | 25 | 83 | 0.0 | 3.2 | 0.00 | 0.00 | 0.00 | 76 | 1010.2 |
| 20260905234752 | 25 | 154 | 0.0 | 3.2 | 0.00 | 0.00 | 0.00 | 75 | 1009.9 |
| 20260905234247 | 26 | 196 | 1.6 | 3.2 | 0.00 | 0.00 | 0.00 | 75 | 1009.9 |
| 20260905233743 | 26 | 126 | 3.2 | 3.2 | 0.00 | 0.00 | 0.00 | 75 | 1010.3 |
| 20260905233242 | 26 | 156 | 0.0 | 1.6 | 0.00 | 0.00 | 0.00 | 74 | 1010.2 |
| 20260905232741 | 26 | 173 | 0.0 | 3.2 | 0.00 | 0.00 | 0.00 | 74 | 1010.5 |
| 20260905232237 | 26 | 149 | 1.6 | 1.6 | 0.00 | 0.00 | 0.00 | 74 | 1010.5 |
| 20260905231733 | 26 | 120 | 1.6 | 3.2 | 0.00 | 0.00 | 0.00 | 74 | 1010.4 |
| 20260905231228 | 26 | 95 | 0.0 | 3.2 | 0.00 | 0.00 | 0.00 | 74 | 1010.4 |
| 20260905230725 | 26 | 62 | 0.0 | 1.6 | 0.00 | 0.00 | 0.00 | 74 | 1009.9 |
| 20260905230222 | 26 | 88 | 1.6 | 3.2 | 0.00 | 0.00 | 0.00 | 76 | 1009.8 |
| 20260905225722 | 26 | 158 | 0.0 | 1.6 | 0.00 | 0.00 | 0.00 | 76 | 1009.7 |
| 20260905225217 | 26 | 111 | 1.6 | 3.2 | 0.00 | 0.00 | 0.00 | 76 | 1009.5 |
| 20260905224716 | 26 | 84 | 1.6 | 3.2 | 0.00 | 0.00 | 0.00 | 75 | 1009.3 |
| 20260905224212 | 26 | 48 | 0.0 | 3.2 | 0.00 | 0.00 | 0.00 | 75 | 1009.6 |
| 20260905223708 | 26 | 161 | 1.6 | 4.8 | 0.00 | 0.00 | 0.00 | 75 | 1009.7 |
| 20260905223204 | 27 | 127 | 0.0 | 3.2 | 0.00 | 0.00 | 0.00 | 74 | 1009.4 |
| 20260905222700 | 27 | 135 | 0.0 | 3.2 | 0.00 | 0.00 | 0.00 | 73 | 1009.2 |
| 20260905222159 | 27 | 126 | 3.2 | 3.2 | 0.00 | 0.00 | 0.00 | 73 | 1008.8 |
| 20260905221655 | 27 | 116 | 3.2 | 3.2 | 0.00 | 0.00 | 0.00 | 72 | 1008.5 |
| 20260905221152 | 27 | 140 | 3.2 | 4.8 | 0.00 | 0.00 | 0.00 | 72 | 1008.6 |
| 20260905220647 | 27 | 218 | 4.8 | 4.8 | 0.00 | 0.00 | 0.00 | 72 | 1008.4 |
| 20260905220143 | 27 | 180 | 0.0 | 3.2 | 0.00 | 0.00 | 0.00 | 70 | 1008.0 |
| 20260905215642 | 27 | 254 | 3.2 | 3.2 | 0.00 | 0.00 | 0.00 | 71 | 1008.0 |
| 20260905215138 | 27 | 120 | 0.0 | 4.8 | 0.00 | 0.00 | 0.00 | 74 | 1008.1 |
| 20260905214635 | 26 | 193 | 0.0 | 3.2 | 0.00 | 0.00 | 0.00 | 77 | 1008.0 |
| 20260905214135 | 26 | 172 | 1.6 | 3.2 | 0.00 | 0.00 | 0.00 | 76 | 1008.0 |
| 20260905213630 | 26 | 194 | 1.6 | 4.8 | 0.00 | 0.00 | 0.00 | 76 | 1008.4 |
| 20260905213125 | 27 | 188 | 1.6 | 4.8 | 0.00 | 0.00 | 0.00 | 73 | 1008.3 |
| 20260905212621 | 28 | 156 | 6.4 | 8.0 | 0.00 | 0.00 | 0.00 | 68 | 1008.5 |
| 20260905212120 | 28 | 162 | 3.2 | 9.7 | 0.00 | 0.00 | 0.00 | 65 | 1008.5 |
| 20260905211615 | 29 | 187 | 3.2 | 4.8 | 0.00 | 0.00 | 0.00 | 63 | 1008.2 |
| 20260905211111 | 29 | 198 | 3.2 | 4.8 | 0.00 | 0.00 | 0.00 | 61 | 1007.9 |
| 20260905210608 | 30 | 172 | 3.2 | 4.8 | 0.00 | 0.00 | 0.00 | 60 | 1008.3 |
| 20260905210108 | 30 | 144 | 3.2 | 4.8 | 0.00 | 0.00 | 0.00 | 60 | 1008.6 |
| 20260905205607 | 31 | 139 | 3.2 | 4.8 | 0.00 | 0.00 | 0.00 | 61 | 1008.2 |
| 20260905205106 | 32 | 160 | 8.0 | 9.7 | 0.00 | 0.00 | 0.00 | 60 | 1008.4 |
| 20260905204601 | 32 | 153 | 4.8 | 4.8 | 0.00 | 0.00 | 0.00 | 61 | 1008.7 |
| 20260905204056 | 33 | 144 | 1.6 | 4.8 | 0.00 | 0.00 | 0.00 | 57 | 1008.3 |
| 20260905203555 | 34 | 259 | 0.0 | 3.2 | 0.00 | 0.00 | 0.00 | 54 | 1008.4 |
| 20260905203051 | 35 | 157 | 1.6 | 3.2 | 0.00 | 0.00 | 0.00 | 53 | 1008.2 |
| 20260905202546 | 35 | 204 | 3.2 | 9.7 | 0.00 | 0.00 | 0.00 | 51 | 1008.1 |
| 20260905202042 | 36 | 214 | 4.8 | 4.8 | 0.00 | 0.00 | 0.00 | 50 | 1007.8 |
| 20260905201537 | 36 | 209 | 4.8 | 4.8 | 0.00 | 0.00 | 0.00 | 49 | 1007.8 |
| 20260905201037 | 36 | 356 | 3.2 | 4.8 | 0.00 | 0.00 | 0.00 | 47 | 1007.9 |
| 20260905200532 | 37 | 142 | 3.2 | 4.8 | 0.00 | 0.00 | 0.00 | 46 | 1007.8 |
| 20260905200033 | 38 | 174 | 3.2 | 6.4 | 0.00 | 0.00 | 0.00 | 44 | 1007.7 |
| 20260905195532 | 38 | 172 | 1.6 | 4.8 | 0.00 | 0.00 | 0.00 | 42 | 1007.7 |
| 20260905195022 | 38 | 173 | 0.0 | 3.2 | 0.00 | 0.00 | 0.00 | 44 | 1007.8 |
| 20260905194522 | 38 | 150 | 3.2 | 4.8 | 0.00 | 0.00 | 0.00 | 45 | 1008.0 |
| 20260905194021 | 38 | 199 | 0.0 | 3.2 | 0.00 | 0.00 | 0.00 | 46 | 1008.0 |
| 20260905193516 | 38 | 121 | 0.0 | 4.8 | 0.00 | 0.00 | 0.00 | 44 | 1008.0 |
| 20260905193011 | 38 | 328 | 1.6 | 4.8 | 0.00 | 0.00 | 0.00 | 45 | 1008.2 |
| 20260905192506 | 38 | 157 | 0.0 | 4.8 | 0.00 | 0.00 | 0.00 | 45 | 1008.2 |
| 20260905192002 | 38 | 145 | 4.8 | 4.8 | 0.00 | 0.00 | 0.00 | 47 | 1008.2 |
| 20260905191501 | 37 | 192 | 1.6 | 6.4 | 0.00 | 0.00 | 0.00 | 46 | 1008.3 |
| 20260905191000 | 37 | 128 | 1.6 | 4.8 | 0.00 | 0.00 | 0.00 | 47 | 1008.3 |
| 20260905190458 | 37 | 235 | 4.8 | 4.8 | 0.00 | 0.00 | 0.00 | 47 | 1008.3 |
| 20260905185957 | 37 | 28 | 1.6 | 4.8 | 0.00 | 0.00 | 0.00 | 47 | 1008.4 |
| 20260905185452 | 37 | 179 | 1.6 | 4.8 | 0.00 | 0.00 | 0.00 | 48 | 1008.2 |
| 20260905184951 | 37 | 53 | 0.0 | 4.8 | 0.00 | 0.00 | 0.00 | 49 | 1008.5 |
| 20260905184446 | 37 | 207 | 4.8 | 4.8 | 0.00 | 0.00 | 0.00 | 47 | 1008.7 |
| 20260905183944 | 37 | 2 | 1.6 | 3.2 | 0.00 | 0.00 | 0.00 | 50 | 1008.8 |
| 20260905183439 | 37 | 108 | 0.0 | 3.2 | 0.00 | 0.00 | 0.00 | 48 | 1009.1 |
| 20260905182934 | 37 | 211 | 0.0 | 4.8 | 0.00 | 0.00 | 0.00 | 50 | 1008.9 |
| 20260905182433 | 37 | 125 | 3.2 | 4.8 | 0.00 | 0.00 | 0.00 | 48 | 1009.1 |
| 20260905181929 | 37 | 211 | 4.8 | 6.4 | 0.00 | 0.00 | 0.00 | 49 | 1009.3 |
| 20260905181429 | 36 | 159 | 0.0 | 3.2 | 0.00 | 0.00 | 0.00 | 52 | 1009.3 |
| 20260905180928 | 36 | 47 | 1.6 | 4.8 | 0.00 | 0.00 | 0.00 | 53 | 1009.6 |
| 20260905180423 | 36 | 169 | 1.6 | 3.2 | 0.00 | 0.00 | 0.00 | 52 | 1009.6 |
| 20260905175918 | 36 | 188 | 1.6 | 4.8 | 0.00 | 0.00 | 0.00 | 52 | 1009.6 |
| 20260905175418 | 36 | 101 | 1.6 | 4.8 | 0.00 | 0.00 | 0.00 | 53 | 1009.8 |
| 20260905174913 | 36 | 144 | 1.6 | 3.2 | 0.00 | 0.00 | 0.00 | 54 | 1009.8 |
| 20260905174409 | 35 | 153 | 3.2 | 6.4 | 0.00 | 0.00 | 0.00 | 55 | 1009.9 |
| 20260905173904 | 36 | 1 | 1.6 | 4.8 | 0.00 | 0.00 | 0.00 | 54 | 1010.1 |
| 20260905173400 | 36 | 117 | 3.2 | 4.8 | 0.00 | 0.00 | 0.00 | 54 | 1010.0 |
| 20260905172855 | 35 | 325 | 3.2 | 4.8 | 0.00 | 0.00 | 0.00 | 54 | 1010.2 |
| 20260905172353 | 35 | 160 | 3.2 | 4.8 | 0.00 | 0.00 | 0.00 | 55 | 1010.3 |
| 20260905171849 | 35 | 40 | 3.2 | 4.8 | 0.00 | 0.00 | 0.00 | 56 | 1010.2 |
| 20260905171346 | 35 | 171 | 0.0 | 4.8 | 0.00 | 0.00 | 0.00 | 56 | 1010.4 |
| 20260905170842 | 35 | 99 | 1.6 | 3.2 | 0.00 | 0.00 | 0.00 | 56 | 1010.5 |
| 20260905170338 | 35 | 185 | 1.6 | 3.2 | 0.00 | 0.00 | 0.00 | 58 | 1010.6 |
| 20260905165837 | 35 | 154 | 1.6 | 4.8 | 0.00 | 0.00 | 0.00 | 57 | 1010.4 |
| 20260905165332 | 34 | 133 | 3.2 | 3.2 | 0.00 | 0.00 | 0.00 | 57 | 1010.8 |
| 20260905164832 | 35 | 112 | 0.0 | 3.2 | 0.00 | 0.00 | 0.00 | 58 | 1010.7 |
| 20260905164327 | 35 | 195 | 1.6 | 4.8 | 0.00 | 0.00 | 0.00 | 55 | 1010.8 |
| 20260905163822 | 35 | 226 | 0.0 | 3.2 | 0.00 | 0.00 | 0.00 | 56 | 1010.9 |
| 20260905163319 | 35 | 194 | 1.6 | 6.4 | 0.00 | 0.00 | 0.00 | 55 | 1011.0 |
| 20260905162815 | 35 | 61 | 0.0 | 4.8 | 0.00 | 0.00 | 0.00 | 57 | 1011.1 |
| 20260905162314 | 34 | 188 | 1.6 | 4.8 | 0.00 | 0.00 | 0.00 | 59 | 1011.2 |
| 20260905161809 | 34 | 129 | 0.0 | 3.2 | 0.00 | 0.00 | 0.00 | 60 | 1011.3 |
| 20260905161308 | 33 | 151 | 0.0 | 3.2 | 0.00 | 0.00 | 0.00 | 61 | 1011.3 |
| 20260905160807 | 33 | 122 | 1.6 | 3.2 | 0.00 | 0.00 | 0.00 | 61 | 1011.4 |
| 20260905160300 | 33 | 66 | 0.0 | 4.8 | 0.00 | 0.00 | 0.00 | 60 | 1011.4 |
| 20260905155755 | 33 | 195 | 1.6 | 6.4 | 0.00 | 0.00 | 0.00 | 62 | 1011.5 |
| 20260905155254 | 33 | 86 | 1.6 | 4.8 | 0.00 | 0.00 | 0.00 | 64 | 1011.5 |
| 20260905154748 | 33 | 266 | 0.0 | 3.2 | 0.00 | 0.00 | 0.00 | 64 | 1011.7 |
| 20260905154245 | 33 | 158 | 0.0 | 4.8 | 0.00 | 0.00 | 0.00 | 64 | 1011.4 |
| 20260905153740 | 32 | 188 | 3.2 | 4.8 | 0.00 | 0.00 | 0.00 | 65 | 1011.7 |
| 20260905153236 | 32 | 199 | 0.0 | 4.8 | 0.00 | 0.00 | 0.00 | 67 | 1011.6 |
| 20260905152731 | 32 | 230 | 1.6 | 3.2 | 0.00 | 0.00 | 0.00 | 68 | 1011.6 |
| 20260905152230 | 31 | 136 | 1.6 | 3.2 | 0.00 | 0.00 | 0.00 | 68 | 1011.8 |
| 20260905151730 | 31 | 169 | 3.2 | 3.2 | 0.00 | 0.00 | 0.00 | 69 | 1012.0 |
| 20260905151227 | 31 | 141 | 3.2 | 4.8 | 0.00 | 0.00 | 0.00 | 69 | 1011.9 |
| 20260905150726 | 31 | 162 | 3.2 | 4.8 | 0.00 | 0.00 | 0.00 | 69 | 1011.9 |
| 20260905150226 | 31 | 147 | 3.2 | 4.8 | 0.00 | 0.00 | 0.00 | 70 | 1011.7 |
| 20260905145723 | 31 | 174 | 1.6 | 3.2 | 0.00 | 0.00 | 0.00 | 72 | 1012.0 |
| 20260905145218 | 31 | 88 | 0.0 | 3.2 | 0.00 | 0.00 | 0.00 | 73 | 1011.9 |
| 20260905144718 | 30 | 215 | 0.0 | 3.2 | 0.00 | 0.00 | 0.00 | 73 | 1012.3 |
| 20260905144218 | 30 | 149 | 0.0 | 3.2 | 0.00 | 0.00 | 0.00 | 74 | 1012.1 |
| 20260905143717 | 30 | 102 | 1.6 | 3.2 | 0.00 | 0.00 | 0.00 | 75 | 1012.2 |
| 20260905143217 | 30 | 106 | 3.2 | 3.2 | 0.00 | 0.00 | 0.00 | 76 | 1012.2 |
| 20260905142715 | 30 | 146 | 1.6 | 4.8 | 0.00 | 0.00 | 0.00 | 75 | 1012.1 |
| 20260905142210 | 30 | 164 | 4.8 | 4.8 | 0.00 | 0.00 | 0.00 | 76 | 1012.2 |
| 20260905141707 | 29 | 326 | 0.0 | 4.8 | 0.00 | 0.00 | 0.00 | 77 | 1012.3 |
| 20260905141203 | 29 | 131 | 0.0 | 3.2 | 0.00 | 0.00 | 0.00 | 78 | 1012.3 |
| 20260905140657 | 29 | 102 | 1.6 | 3.2 | 0.00 | 0.00 | 0.00 | 77 | 1012.4 |
| 20260905140157 | 28 | 168 | 3.2 | 4.8 | 0.00 | 0.00 | 0.00 | 78 | 1012.3 |
| 20260905135651 | 28 | 132 | 1.6 | 4.8 | 0.00 | 0.00 | 0.00 | 78 | 1012.4 |
| 20260905135148 | 28 | 118 | 1.6 | 4.8 | 0.00 | 0.00 | 0.00 | 78 | 1012.5 |
| 20260905134647 | 28 | 158 | 3.2 | 3.2 | 0.00 | 0.00 | 0.00 | 79 | 1012.1 |
| 20260905134146 | 28 | 123 | 1.6 | 4.8 | 0.00 | 0.00 | 0.00 | 78 | 1012.3 |
| 20260905133642 | 28 | 207 | 0.0 | 4.8 | 0.00 | 0.00 | 0.00 | 79 | 1012.3 |
| 20260905133141 | 28 | 148 | 3.2 | 3.2 | 0.00 | 0.00 | 0.00 | 82 | 1012.2 |
| 20260905132641 | 28 | 229 | 3.2 | 3.2 | 0.00 | 0.00 | 0.00 | 83 | 1012.4 |
| 20260905132136 | 27 | 93 | 0.0 | 3.2 | 0.00 | 0.00 | 0.00 | 86 | 1012.5 |
| 20260905131631 | 26 | 127 | 3.2 | 3.2 | 0.00 | 0.00 | 0.00 | 87 | 1012.5 |
| 20260905131126 | 26 | 146 | 3.2 | 4.8 | 0.00 | 0.00 | 0.00 | 88 | 1012.5 |
| 20260905130621 | 26 | 146 | 3.2 | 3.2 | 0.00 | 0.00 | 0.00 | 89 | 1012.5 |
| 20260905130120 | 26 | 150 | 3.2 | 3.2 | 0.00 | 0.00 | 0.00 | 90 | 1012.5 |
| 20260905125615 | 26 | 146 | 1.6 | 3.2 | 0.00 | 0.00 | 0.00 | 91 | 1012.5 |
| 20260905125110 | 25 | 88 | 1.6 | 3.2 | 0.00 | 0.00 | 0.00 | 92 | 1012.4 |
| 20260905124607 | 25 | 177 | 1.6 | 3.2 | 0.00 | 0.00 | 0.00 | 92 | 1012.5 |
| 20260905124103 | 25 | 173 | 0.0 | 3.2 | 0.00 | 0.00 | 0.00 | 93 | 1012.8 |
| 20260905123557 | 25 | 180 | 3.2 | 3.2 | 0.00 | 0.00 | 0.00 | 94 | 1012.5 |
| 20260905123055 | 25 | 167 | 1.6 | 3.2 | 0.00 | 0.00 | 0.00 | 95 | 1012.5 |
| 20260905122555 | 25 | 153 | 0.0 | 3.2 | 0.00 | 0.00 | 0.00 | 96 | 1012.4 |
| 20260905122054 | 24 | 149 | 1.6 | 3.2 | 0.00 | 0.00 | 0.00 | 97 | 1012.4 |
| 20260905121549 | 24 | 141 | 1.6 | 3.2 | 0.00 | 0.00 | 0.00 | 97 | 1012.2 |
| 20260905121044 | 24 | 143 | 1.6 | 3.2 | 0.00 | 0.00 | 0.00 | 97 | 1012.4 |
| 20260905120543 | 23 | 220 | 0.0 | 1.6 | 0.00 | 0.00 | 0.00 | 97 | 1012.3 |
| 20260905120039 | 23 | 113 | 0.0 | 3.2 | 0.00 | 0.00 | 0.00 | 97 | 1012.2 |
| 20260905115538 | 23 | 149 | 1.6 | 3.2 | 0.00 | 0.00 | 0.00 | 97 | 1012.3 |
| 20260905115033 | 23 | 123 | 3.2 | 3.2 | 0.00 | 0.00 | 0.00 | 97 | 1012.2 |
| 20260905114532 | 23 | 144 | 1.6 | 3.2 | 0.00 | 0.00 | 0.00 | 97 | 1012.3 |
| 20260905114031 | 23 | 128 | 1.6 | 1.6 | 0.00 | 0.00 | 0.00 | 97 | 1012.1 |
| 20260905113526 | 23 | 103 | 0.0 | 0.0 | 0.00 | 0.00 | 0.00 | 97 | 1012.0 |
| 20260905113021 | 23 | 135 | 0.0 | 1.6 | 0.00 | 0.00 | 0.00 | 97 | 1012.0 |
| 20260905112517 | 23 | 102 | 0.0 | 1.6 | 0.00 | 0.00 | 0.00 | 97 | 1012.0 |
| 20260905112012 | 23 | 77 | 0.0 | 1.6 | 0.00 | 0.00 | 0.00 | 97 | 1012.0 |
| 20260905111508 | 23 | 137 | 0.0 | 1.6 | 0.00 | 0.00 | 0.00 | 97 | 1011.9 |
| 20260905111007 | 23 | 130 | 0.0 | 1.6 | 0.00 | 0.00 | 0.00 | 97 | 1011.9 |
| 20260905110506 | 23 | 121 | 0.0 | 1.6 | 0.00 | 0.00 | 0.00 | 97 | 1011.7 |
| 20260905110001 | 23 | 133 | 0.0 | 1.6 | 0.00 | 0.00 | 0.00 | 97 | 1011.8 |
| 20260905105501 | 23 | 102 | 0.0 | 1.6 | 0.00 | 0.00 | 0.00 | 97 | 1011.9 |
| 20260905104955 | 23 | 134 | 0.0 | 3.2 | 0.00 | 0.00 | 0.00 | 97 | 1011.7 |
| 20260905104451 | 23 | 126 | 0.0 | 1.6 | 0.00 | 0.00 | 0.00 | 97 | 1011.7 |
| 20260905103951 | 23 | 143 | 1.6 | 1.6 | 0.00 | 0.00 | 0.00 | 97 | 1011.7 |
| 20260905103446 | 23 | 96 | 1.6 | 3.2 | 0.00 | 0.00 | 0.00 | 97 | 1011.7 |
| 20260905102942 | 23 | 97 | 0.0 | 3.2 | 0.00 | 0.00 | 0.00 | 97 | 1011.7 |
| 20260905102438 | 23 | 85 | 0.0 | 1.6 | 0.00 | 0.00 | 0.00 | 97 | 1011.5 |
| 20260905101933 | 23 | 50 | 0.0 | 3.2 | 0.00 | 0.00 | 0.00 | 97 | 1011.5 |
| 20260905101431 | 23 | 138 | 1.6 | 3.2 | 0.00 | 0.00 | 0.00 | 97 | 1011.3 |
| 20260905100926 | 23 | 161 | 1.6 | 1.6 | 0.00 | 0.00 | 0.00 | 97 | 1011.3 |
| 20260905100422 | 23 | 169 | 0.0 | 1.6 | 0.00 | 0.00 | 0.00 | 97 | 1011.3 |
| 20260905095921 | 23 | 201 | 1.6 | 3.2 | 0.00 | 0.00 | 0.00 | 97 | 1011.2 |